JCSAT-3A

Last updated on Sun Apr 12 2026 00:02:51 GMT+0000 (Coordinated Universal Time)

1 29272U 06033A 26101.49141918 -.00000343 00000+0 00000+0 0 9990 2 29272 0.0164 267.4309 0002172 128.3858 108.8026 1.00271731 47078
UTC large
Height (km)
Speed (km/s)
/
Latitude / Longitude
Inclination (degrees)
Orbital Period (minutes)
Azimuth
Elevation
Range (km)
Doppler Factor

Next 0 passes for location: London (51.5072 / 0.1276)

Sorry there are no passes over London.
JCSAT-3A